[[{"header":{"parameterUnit":"m.s-1","parameterCategory":2,"la1":30.2991,"la2":30.254,"lo1":-89.0895,"lo2":-89.0444,"dy":0.0017,"dx":0.0017,"nx":28,"ny":28,"refTime":"2024-07-20T09:00:00:Z","depth":"0","parameterNumber":2,"parameterNumberName":"U-component_of_CURRENTS"},"data":[0,0,0,0,0,0,0,0,0,0,0,0,0,0,0,0,0,0,0,0,0,0,0,0,0,0,0,0,0,0,0,0,0,0,0,0,0,0,0,0,0,0,0,0,0,0,0,0,0,0,0,0,0,0,0,0,0,0,-0.2465,-0.2465,0,-0.2478,-0.2478,-0.2478,-0.2457,-0.2457,-0.2456,-0.2456,-0.2457,-0.2457,-0.2458,0,0,0,0,0,0,0,0,0,0,0,0,0,-0.2386,-0.2387,-0.2465,-0.2465,-0.2466,-0.2478,-0.2478,-0.2478,-0.2457,-0.2457,-0.2456,-0.2456,-0.2457,-0.2457,-0.2458,0,0,0,0,0,0,0,0,0,0,0,0,0,-0.2409,-0.2388,-0.2465,-0.2459,-0.2459,-0.2478,-0.2478,-0.2478,-0.2457,-0.2457,-0.2456,-0.2456,-0.2456,-0.2457,-0.2458,-0.2474,0,0,-0.246,-0.246,0,0,0,0,0,0,0,0,-0.2408,-0.2411,-0.246,-0.246,-0.246,-0.2468,-0.245,-0.2477,-0.2458,-0.2455,-0.2456,-0.2455,-0.2462,-0.2462,-0.2462,-0.2474,-0.2474,-0.246,-0.246,-0.246,-0.246,0,0,0,0,0,0,0,-0.2406,-0.2411,-0.2467,-0.246,-0.246,-0.2444,-0.2447,-0.2455,-0.2459,-0.2455,-0.2454,-0.2461,-0.2461,-0.2461,-0.2461,-0.2474,-0.246,-0.246,-0.2461,-0.2461,-0.2469,-0.2469,0,0,0,0,0,0,-0.2414,-0.241,-0.2466,-0.2468,-0.2435,-0.2446,-0.2449,-0.2463,-0.2459,-0.2459,-0.2462,-0.246,-0.246,-0.2461,-0.2461,-0.248,-0.246,-0.2461,-0.2461,-0.2469,-0.2469,-0.2469,0,0,0,0,0,0,-0.2412,-0.2419,-0.2466,-0.244,-0.2446,-0.2449,-0.2465,-0.2464,-0.2464,-0.2465,-0.2464,-0.2462,-0.246,-0.2461,-0.2463,-0.248,-0.2461,-0.2462,-0.2469,-0.2469,-0.2469,-0.2519,0,0,0,0,0,0,-0.241,-0.2419,-0.2426,-0.2442,-0.2448,-0.2483,-0.2466,-0.2465,-0.247,-0.2468,-0.2465,-0.2465,-0.2459,-0.2462,-0.2463,-0.2481,-0.2462,-0.247,-0.2469,-0.2469,-0.2517,-0.252,-0.2523,0,0,0,0,0,-0.2407,-0.2422,-0.2426,-0.2433,-0.246,-0.2484,-0.2485,-0.2482,-0.2471,-0.2477,-0.2466,-0.2465,-0.2461,-0.2462,-0.2464,-0.2482,-0.247,-0.2469,-0.2469,-0.2516,-0.2519,-0.2522,0,0,0,0,0,0,-0.2388,-0.2422,-0.2427,-0.2451,-0.2469,-0.2482,-0.2485,-0.2486,-0.2482,-0.2475,-0.2468,-0.2468,-0.2475,-0.2467,-0.2469,-0.248,-0.2463,-0.2463,-0.2498,-0.2501,-0.2504,-0.2511,-0.2463,0,0,0,0,0,-0.2391,-0.2409,-0.244,-0.2455,-0.2467,-0.2476,-0.2483,-0.2486,-0.2488,-0.2486,-0.2484,-0.2475,-0.2476,-0.2479,-0.2475,-0.2488,-0.247,-0.2496,-0.2499,-0.2502,-0.2506,-0.2492,-0.2494,-0.2468,-0.2468,-0.2468,0,0,-0.2385,-0.2407,-0.2415,-0.2452,-0.2462,-0.2491,-0.2477,-0.2493,-0.2513,-0.2488,-0.2501,-0.2487,-0.2479,-0.2489,-0.2491,-0.2486,-0.2497,-0.2501,-0.2504,-0.2507,-0.2492,-0.2494,-0.2497,-0.2468,-0.2468,-0.2468,0,0,-0.2388,-0.2406,-0.2426,-0.2451,-0.2479,-0.2493,-0.2501,-0.2519,-0.2521,-0.2535,-0.2517,-0.2511,-0.2516,-0.2512,-0.2511,-0.2526,-0.251,-0.2525,-0.2552,-0.2539,-0.2541,-0.2543,-0.2516,-0.2515,-0.2529,-0.2529,-0.2529,0,-0.2378,-0.2416,-0.2433,-0.2466,-0.249,-0.2499,-0.2532,-0.2542,-0.2555,-0.2555,-0.2543,-0.2535,-0.2529,-0.254,-0.2543,-0.2536,-0.2518,-0.2546,-0.2544,-0.2545,-0.2547,-0.2518,-0.2517,-0.2532,-0.2531,-0.2531,-0.2531,0,-0.2402,-0.2437,-0.2451,-0.2501,-0.2529,-0.2555,-0.2586,-0.2596,-0.2597,-0.26,-0.2601,-0.2586,-0.2579,-0.2578,-0.257,-0.2577,-0.2558,-0.2549,-0.2541,-0.2553,-0.2521,-0.2519,-0.2535,-0.2534,-0.2533,-0.2533,0,0,-0.236,-0.2452,-0.2455,-0.249,-0.2552,-0.2573,-0.2613,-0.2644,-0.2656,-0.2654,-0.2664,-0.2658,-0.2636,-0.2633,-0.2618,-0.2609,-0.2601,-0.2588,-0.2586,-0.257,-0.256,-0.2364,-0.2342,-0.2595,-0.2595,-0.2595,-0.2533,0,-0.237,-0.2438,-0.2489,-0.255,-0.2584,-0.2624,-0.2663,-0.2688,-0.2697,-0.2705,-0.2684,-0.2685,-0.2664,-0.2658,-0.2648,-0.2615,-0.2598,-0.2618,-0.2543,-0.2541,-0.2372,-0.2334,-0.2216,-0.2134,-0.253,-0.253,-0.253,0,-0.2363,-0.2417,-0.2481,-0.2576,-0.2596,-0.2635,-0.2685,-0.2726,-0.2745,-0.2746,-0.2741,-0.2727,-0.2716,-0.2692,-0.2644,-0.2658,-0.2613,-0.2582,-0.2579,-0.2376,-0.2338,-0.2186,-0.2114,-0.2095,-0.2525,-0.2526,-0.2526,0,-0.2292,-0.2404,-0.2454,-0.2486,-0.2594,-0.2622,-0.2676,-0.2718,-0.2748,-0.2766,-0.2767,-0.2759,-0.2732,-0.2701,-0.2607,-0.2644,-0.2524,-0.2569,-0.2349,-0.2335,-0.2207,-0.2179,-0.2112,-0.2527,-0.2527,-0.2527,-0.2527,0,-0.2265,-0.2299,-0.2425,-0.2444,-0.2504,-0.2593,-0.2643,-0.2683,-0.2741,-0.2729,-0.2776,-0.2725,-0.273,-0.2653,-0.2607,-0.2425,-0.2515,-0.2332,-0.2296,-0.2215,-0.2191,-0.2144,-0.2194,-0.2525,-0.2525,-0.2525,-0.2526,0,-0.2155,-0.2243,-0.2301,-0.2425,-0.2464,-0.2497,-0.2625,-0.2652,-0.2719,-0.2702,-0.2705,-0.27,-0.2571,-0.2532,-0.2442,-0.2375,-0.2204,-0.2172,-0.2056,-0.2003,-0.1791,-0.1847,-0.1768,-0.1721,-0.1963,-0.1958,-0.1953,0,-0.2103,-0.2121,-0.2251,-0.2279,-0.2331,-0.2414,-0.2465,-0.26,-0.2622,-0.2625,-0.2587,-0.25,-0.2332,-0.214,-0.2028,-0.1893,-0.1952,-0.1722,-0.1763,-0.1726,-0.1767,-0.1858,-0.1834,-0.1634,-0.1627,-0.1621,-0.1617,0,-0.1983,-0.2026,-0.2065,-0.2135,-0.2197,-0.2267,-0.2343,-0.234,-0.2435,-0.2405,-0.2255,-0.2129,-0.1965,-0.1724,-0.1575,-0.1507,-0.1681,-0.1598,-0.1613,-0.1521,-0.1569,-0.1521,-0.1736,-0.1567,-0.1572,-0.1576,-0.1578,-0.158,-0.186,-0.1862,-0.1912,-0.1956,-0.2024,-0.2012,-0.1953,-0.1994,-0.1932,-0.1745,-0.1834,-0.1553,-0.1526,-0.1273,-0.1201,-0.1095,-0.1258,-0.1104,-0.1184,-0.1286,-0.1201,-0.1265,-0.1009,-0.1011,-0.1012,-0.1013,-0.1015,0,-0.1701,-0.1707,-0.1733,-0.175,-0.1716,-0.1825,-0.1791,-0.1663,-0.1433,-0.1306,-0.1134,-0.0964,-0.0816,-0.0827,-0.0786,-0.0736,-0.0812,-0.0751,-0.0915,-0.0918,-0.1,-0.094,-0.0591,-0.0591,-0.0591,-0.0591,-0.0591,-0.0591,-0.1612,-0.156,-0.1574,-0.1429,-0.1422,-0.127,-0.1167,-0.0993,-0.0855,-0.0478,-0.0295,-0.0264,-0.0453,-0.0657,-0.0655,-0.0622,-0.0696,-0.0645,-0.0726,-0.0848,-0.0891,-0.0932,-0.0885,-0.053,-0.053,-0.0609,-0.061,-0.0611]},{"header":{"parameterUnit":"m.s-1","parameterCategory":2,"la1":30.2991,"la2":30.254,"lo1":-89.0895,"lo2":-89.0444,"dy":0.0017,"dx":0.0017,"nx":28,"ny":28,"refTime":"2024-07-20T09:00:00:Z","depth":"0","parameterNumber":3,"parameterNumberName":"V-component_of_CURRENTS"},"data":[0,0,0,0,0,0,0,0,0,0,0,0,0,0,0,0,0,0,0,0,0,0,0,0,0,0,0,0,0,0,0,0,0,0,0,0,0,0,0,0,0,0,0,0,0,0,0,0,0,0,0,0,0,0,0,0,0,0,-0.0246,-0.0245,0,-0.0167,-0.0166,-0.0165,-0.0104,-0.0104,-0.0103,-0.0103,0.0035,0.0038,0.0041,0,0,0,0,0,0,0,0,0,0,0,0,0,-0.0304,-0.0304,-0.0246,-0.0245,-0.0244,-0.0167,-0.0166,-0.0164,-0.0105,-0.0104,-0.0103,-0.0103,0.0034,0.0037,0.0041,0,0,0,0,0,0,0,0,0,0,0,0,0,-0.0257,-0.0304,-0.0247,-0.0206,-0.0201,-0.0167,-0.0166,-0.0164,-0.0105,-0.0104,-0.0103,-0.0102,0.0032,0.0037,0.0042,0.0056,0,0,0.0056,0.0058,0,0,0,0,0,0,0,0,-0.026,-0.0255,-0.0212,-0.0208,-0.0203,-0.0145,-0.0135,-0.0088,-0.0105,-0.0141,-0.0103,-0.0102,-0.0021,-0.0012,0.0001,0.0062,0.0068,0.0057,0.006,0.0062,0.0063,0,0,0,0,0,0,0,-0.0263,-0.0258,-0.0214,-0.0212,-0.0206,-0.0176,-0.0169,-0.0126,-0.0085,-0.0138,-0.0133,-0.0125,-0.0018,-0.0004,0.0005,0.007,0.0057,0.0061,0.0064,0.0066,0.0166,0.0166,0,0,0,0,0,0,-0.0277,-0.0261,-0.0217,-0.0212,-0.0231,-0.0176,-0.0168,-0.0164,-0.0086,-0.0074,-0.0126,-0.0123,-0.0012,-0.0,0.001,0.0029,0.0062,0.0066,0.0069,0.0166,0.0166,0.0166,0,0,0,0,0,0,-0.0279,-0.0274,-0.022,-0.0235,-0.0226,-0.0176,-0.0172,-0.0163,-0.0147,-0.0078,-0.0065,-0.012,-0.0011,0.0004,0.0041,0.0035,0.0068,0.0073,0.0167,0.0166,0.0166,0.0069,0,0,0,0,0,0,-0.0281,-0.0275,-0.0281,-0.0236,-0.0226,-0.0208,-0.0173,-0.0162,-0.0144,-0.0139,-0.0068,-0.0055,-0.0009,0.0033,0.0045,0.0042,0.0076,0.0167,0.0166,0.0166,0.0073,0.0066,0.006,0,0,0,0,0,-0.0283,-0.0296,-0.0282,-0.0276,-0.0234,-0.0209,-0.0201,-0.0163,-0.0144,-0.0144,-0.0099,-0.0057,0.004,0.0036,0.0051,0.0049,0.0167,0.0167,0.0166,0.0075,0.0067,0.006,0,0,0,0,0,0,-0.0326,-0.029,-0.0273,-0.0275,-0.0248,-0.0199,-0.0197,-0.017,-0.0134,-0.0129,-0.0063,-0.0047,-0.0016,0.003,0.0024,0.0079,0.0112,0.0115,0.0038,0.0031,0.0024,0.0011,0.008,0,0,0,0,0,-0.0339,-0.0339,-0.0298,-0.0301,-0.029,-0.0245,-0.0231,-0.0205,-0.0167,-0.015,-0.0102,-0.0049,-0.0007,0.0021,0.0064,0.0092,0.0157,0.0103,0.0097,0.0091,0.0091,0.0163,0.0163,0.0164,0.0164,0.0165,0,0,-0.0358,-0.0337,-0.0338,-0.031,-0.0286,-0.0286,-0.0235,-0.0221,-0.0218,-0.0141,-0.0123,-0.0072,-0.0005,0.0023,0.0042,0.0061,0.0128,0.009,0.0084,0.0088,0.0163,0.0163,0.0162,0.0164,0.0164,0.0164,0,0,-0.0401,-0.0377,-0.0394,-0.0378,-0.0348,-0.0319,-0.0319,-0.0274,-0.025,-0.0226,-0.0172,-0.0126,-0.0062,-0.0016,0.0017,0.0003,0.0087,0.0019,-0.0019,0.005,0.005,0.0051,0.0148,0.0159,0.002,0.002,0.002,0,-0.0427,-0.0442,-0.0396,-0.0409,-0.0408,-0.0341,-0.0365,-0.0328,-0.0278,-0.0256,-0.0233,-0.0132,-0.008,-0.0034,-0.0041,-0.0012,0.0051,0.0,0.004,0.0043,0.0046,0.0145,0.0158,0.0015,0.0016,0.0016,0.0017,0,-0.0483,-0.0496,-0.0505,-0.05,-0.0492,-0.0499,-0.045,-0.0425,-0.0385,-0.0341,-0.0286,-0.0211,-0.0146,-0.0124,-0.0088,-0.0043,0.0004,0.0018,0.0055,0.0039,0.0146,0.0161,0.0008,0.001,0.0011,0.0013,0,0,-0.054,-0.0547,-0.0549,-0.0566,-0.0544,-0.054,-0.0531,-0.0497,-0.047,-0.0409,-0.0372,-0.0302,-0.0243,-0.0202,-0.014,-0.008,-0.0006,-0.0031,-0.0025,0.0058,0.0173,0.0234,0.0258,0.0012,0.0013,0.0015,0.0245,0,-0.0601,-0.0655,-0.0637,-0.0683,-0.0708,-0.0652,-0.0641,-0.0594,-0.0534,-0.0473,-0.0378,-0.0312,-0.0276,-0.0232,-0.0176,-0.0039,0.0027,-0.0068,0.0184,0.0192,0.0241,0.0274,0.0284,0.0491,0.0261,0.0263,0.0265,0,-0.0664,-0.0692,-0.0758,-0.0769,-0.0771,-0.0781,-0.0743,-0.0723,-0.0616,-0.0557,-0.0477,-0.0385,-0.0276,-0.0247,-0.0036,-0.0096,0.0021,0.0123,0.0135,0.0235,0.0281,0.0469,0.0528,0.0648,0.0289,0.0287,0.0286,0,-0.0731,-0.0772,-0.083,-0.0839,-0.0837,-0.0844,-0.0831,-0.0753,-0.0699,-0.0599,-0.0515,-0.0406,-0.0281,-0.0163,0.0057,0.0012,0.0311,0.0278,0.0447,0.0454,0.0535,0.0546,0.0733,0.0413,0.0413,0.0412,0.0411,0,-0.0806,-0.0845,-0.0864,-0.0896,-0.0938,-0.0911,-0.0909,-0.0863,-0.0751,-0.0631,-0.0558,-0.0405,-0.0251,-0.0052,0.0073,0.034,0.0333,0.046,0.0518,0.0504,0.0509,0.0675,0.0714,0.0421,0.0419,0.0417,0.0416,0,-0.0871,-0.0884,-0.0948,-0.097,-0.0977,-0.1005,-0.0957,-0.0918,-0.0806,-0.0639,-0.0587,-0.0362,-0.0103,0.0068,0.033,0.0421,0.0718,0.0713,0.0703,0.0753,0.0955,0.0986,0.1235,0.1355,0.0906,0.0908,0.0911,0,-0.091,-0.0952,-0.1011,-0.1042,-0.1059,-0.1079,-0.1063,-0.0968,-0.0843,-0.0563,-0.0426,-0.0176,0.0061,0.0436,0.0611,0.0836,0.0912,0.099,0.088,0.0993,0.1071,0.1064,0.1146,0.0968,0.0971,0.0973,0.0974,0,-0.0979,-0.0998,-0.1046,-0.1119,-0.1137,-0.1118,-0.1034,-0.0912,-0.0693,-0.0501,-0.0128,0.0049,0.0373,0.0644,0.0876,0.0985,0.1072,0.1042,0.1164,0.1145,0.1148,0.1282,0.0808,0.0994,0.0992,0.0991,0.099,0.0989,-0.1013,-0.1069,-0.1125,-0.1181,-0.1184,-0.1065,-0.0957,-0.0763,-0.0507,-0.007,0.0114,0.0472,0.0696,0.1002,0.1139,0.1329,0.1276,0.1363,0.1402,0.1393,0.1471,0.1052,0.1285,0.1285,0.1284,0.1284,0.1284,0,-0.1046,-0.1099,-0.1172,-0.1179,-0.1129,-0.1125,-0.0861,-0.0654,-0.0265,0.0094,0.0465,0.0936,0.1168,0.1337,0.1543,0.1679,0.1682,0.1737,0.1719,0.1796,0.1441,0.1402,0.1665,0.1665,0.1664,0.1664,0.1664,0.1664,-0.1063,-0.1137,-0.1176,-0.1105,-0.1071,-0.0864,-0.0664,-0.0346,-0.001,0.0568,0.0953,0.1239,0.1467,0.1737,0.197,0.1993,0.2145,0.2087,0.2223,0.1936,0.1902,0.187,0.1843,0.2194,0.2195,0.2548,0.2552,0.2554]}],[{"header":{"parameterUnit":"m.s-1","parameterCategory":2,"la1":30.2991,"la2":30.254,"lo1":-89.0895,"lo2":-89.0444,"dy":0.0017,"dx":0.0017,"nx":28,"ny":28,"refTime":"2024-07-20T09:00:00:Z","depth":"2","parameterNumber":2,"parameterNumberName":"U-component_of_CURRENTS"},"data":[0,0,0,0,0,0,0,0,0,0,0,0,0,0,0,0,0,0,0,0,0,0,0,0,0,0,0,0,0,0,0,0,0,0,0,0,0,0,0,0,0,0,0,0,0,0,0,0,0,0,0,0,0,0,0,0,0,0,-0.243,-0.243,0,-0.2448,-0.2448,-0.2448,-0.2435,-0.2434,-0.2434,-0.2434,-0.2438,-0.2439,-0.2439,0,0,0,0,0,0,0,0,0,0,0,0,0,-0.2356,-0.2357,-0.2429,-0.243,-0.243,-0.2448,-0.2448,-0.2448,-0.2435,-0.2434,-0.2434,-0.2434,-0.2438,-0.2439,-0.2439,0,0,0,0,0,0,0,0,0,0,0,0,0,-0.238,-0.2357,-0.2429,-0.2428,-0.2428,-0.2448,-0.2448,-0.2448,-0.2435,-0.2434,-0.2434,-0.2433,-0.2438,-0.2438,-0.2439,-0.2453,0,0,-0.2441,-0.2441,0,0,0,0,0,0,0,0,-0.2378,-0.2382,-0.2428,-0.2428,-0.2428,-0.2441,-0.2424,-0.245,-0.2435,-0.243,-0.2434,-0.2433,-0.244,-0.244,-0.2441,-0.2454,-0.2454,-0.2441,-0.2442,-0.2442,-0.2442,0,0,0,0,0,0,0,-0.2377,-0.2381,-0.2434,-0.2428,-0.2429,-0.2417,-0.242,-0.2428,-0.2435,-0.243,-0.243,-0.2436,-0.244,-0.2441,-0.2441,-0.2454,-0.2441,-0.2442,-0.2442,-0.2442,-0.246,-0.2461,0,0,0,0,0,0,-0.2382,-0.238,-0.2434,-0.2435,-0.2405,-0.2419,-0.2422,-0.2435,-0.2435,-0.2436,-0.2437,-0.2436,-0.244,-0.2441,-0.2441,-0.2465,-0.2442,-0.2442,-0.2443,-0.246,-0.246,-0.2461,0,0,0,0,0,0,-0.2381,-0.2387,-0.2433,-0.2409,-0.2415,-0.2422,-0.2436,-0.2436,-0.244,-0.2441,-0.244,-0.2441,-0.2439,-0.2441,-0.2448,-0.2465,-0.2443,-0.2443,-0.246,-0.246,-0.246,-0.2508,0,0,0,0,0,0,-0.2379,-0.2387,-0.2394,-0.241,-0.2416,-0.2451,-0.2437,-0.2437,-0.2446,-0.2445,-0.2445,-0.2444,-0.2439,-0.2447,-0.2448,-0.2465,-0.2444,-0.246,-0.246,-0.246,-0.2507,-0.251,-0.2513,0,0,0,0,0,-0.2376,-0.2391,-0.2395,-0.2401,-0.2428,-0.2452,-0.2455,-0.2455,-0.2447,-0.2455,-0.2448,-0.2445,-0.2449,-0.2448,-0.245,-0.2467,-0.246,-0.246,-0.246,-0.2505,-0.251,-0.2513,0,0,0,0,0,0,-0.236,-0.2392,-0.2396,-0.2419,-0.2438,-0.2451,-0.2457,-0.246,-0.2462,-0.2457,-0.2451,-0.2451,-0.2462,-0.2455,-0.2454,-0.2469,-0.2452,-0.2453,-0.2485,-0.2489,-0.2492,-0.2498,-0.2444,0,0,0,0,0,-0.2363,-0.2381,-0.2409,-0.2425,-0.2437,-0.2448,-0.2456,-0.2461,-0.2467,-0.2467,-0.2466,-0.2462,-0.2465,-0.2469,-0.2468,-0.2483,-0.2465,-0.2491,-0.2495,-0.2498,-0.2501,-0.2487,-0.2489,-0.2461,-0.2461,-0.2461,0,0,-0.2359,-0.2379,-0.2388,-0.2423,-0.2433,-0.2461,-0.245,-0.2469,-0.2489,-0.2468,-0.2485,-0.2476,-0.247,-0.2483,-0.2487,-0.248,-0.2494,-0.2498,-0.2501,-0.2503,-0.2487,-0.249,-0.2493,-0.2461,-0.2461,-0.2461,0,0,-0.2365,-0.2381,-0.2401,-0.2424,-0.2453,-0.2466,-0.2475,-0.2495,-0.25,-0.2519,-0.2504,-0.2503,-0.2512,-0.2509,-0.2509,-0.2529,-0.251,-0.2528,-0.2556,-0.2542,-0.2544,-0.2546,-0.2522,-0.2521,-0.2532,-0.2532,-0.2532,0,-0.2357,-0.2392,-0.2409,-0.2439,-0.246,-0.2473,-0.2503,-0.2516,-0.2534,-0.2539,-0.2529,-0.253,-0.2525,-0.254,-0.2545,-0.2539,-0.2522,-0.2546,-0.2547,-0.2549,-0.255,-0.2524,-0.2523,-0.2535,-0.2534,-0.2534,-0.2534,0,-0.2382,-0.2413,-0.2427,-0.2473,-0.2498,-0.2523,-0.2554,-0.2571,-0.2576,-0.2584,-0.2594,-0.2581,-0.258,-0.2579,-0.2572,-0.2581,-0.2563,-0.2553,-0.2541,-0.2556,-0.2528,-0.2526,-0.2538,-0.2537,-0.2536,-0.2536,0,0,-0.2347,-0.243,-0.2433,-0.2463,-0.2519,-0.2539,-0.2581,-0.2616,-0.2634,-0.264,-0.2655,-0.2655,-0.2638,-0.2636,-0.2622,-0.2613,-0.2606,-0.2591,-0.259,-0.2574,-0.2568,-0.2412,-0.2395,-0.2598,-0.2598,-0.2598,-0.2543,0,-0.2357,-0.2421,-0.2462,-0.2517,-0.255,-0.2588,-0.2626,-0.2657,-0.2673,-0.2689,-0.2677,-0.2683,-0.2664,-0.266,-0.2651,-0.2618,-0.2603,-0.2621,-0.255,-0.2548,-0.2413,-0.2388,-0.2214,-0.2138,-0.2541,-0.2541,-0.254,0,-0.2355,-0.2404,-0.2461,-0.2544,-0.2561,-0.2596,-0.265,-0.2689,-0.2721,-0.273,-0.2734,-0.2724,-0.2716,-0.2692,-0.2648,-0.2661,-0.2619,-0.2589,-0.2586,-0.2423,-0.2387,-0.2188,-0.2118,-0.2536,-0.2537,-0.2537,-0.2537,0,-0.2298,-0.2396,-0.244,-0.2468,-0.2563,-0.2591,-0.2639,-0.2688,-0.2716,-0.2748,-0.2753,-0.2752,-0.2731,-0.2699,-0.2623,-0.2645,-0.2553,-0.2575,-0.2397,-0.2386,-0.2212,-0.2184,-0.2538,-0.2538,-0.2539,-0.2539,-0.2539,0,-0.2277,-0.2307,-0.2419,-0.2438,-0.249,-0.2568,-0.2613,-0.2657,-0.2714,-0.2729,-0.276,-0.2737,-0.273,-0.2673,-0.2626,-0.2475,-0.2549,-0.2386,-0.2354,-0.2221,-0.2195,-0.2525,-0.2524,-0.2537,-0.2537,-0.2537,-0.2538,0,-0.2185,-0.2263,-0.2314,-0.2424,-0.2457,-0.2486,-0.2591,-0.2613,-0.2687,-0.2704,-0.2711,-0.272,-0.2624,-0.2582,-0.2506,-0.2443,-0.2343,-0.2273,-0.2104,-0.205,-0.2198,-0.2201,-0.2095,-0.2089,-0.2084,-0.2079,-0.2076,0,-0.214,-0.2159,-0.2272,-0.2292,-0.2336,-0.2406,-0.244,-0.2563,-0.2585,-0.2661,-0.2637,-0.2589,-0.2473,-0.2296,-0.2171,-0.2033,-0.2158,-0.1829,-0.1833,-0.2169,-0.215,-0.216,-0.2169,-0.1634,-0.1627,-0.1622,-0.1617,0,-0.2035,-0.2075,-0.2109,-0.216,-0.2203,-0.2267,-0.2331,-0.2383,-0.2507,-0.2525,-0.2478,-0.2399,-0.2188,-0.1921,-0.1754,-0.1676,-0.1841,-0.1705,-0.209,-0.176,-0.1726,-0.171,-0.1736,-0.1566,-0.1572,-0.1575,-0.1578,-0.158,-0.1926,-0.1926,-0.1965,-0.1994,-0.2037,-0.2095,-0.2105,-0.22,-0.2248,-0.2239,-0.2266,-0.2047,-0.1913,-0.1506,-0.138,-0.129,-0.1433,-0.1405,-0.1427,-0.1454,-0.1396,-0.1353,-0.1114,-0.1116,-0.1118,-0.112,-0.1122,0,-0.178,-0.1784,-0.1796,-0.1805,-0.1761,-0.1875,-0.1971,-0.1937,-0.1942,-0.1957,-0.1869,-0.1549,-0.1315,-0.1174,-0.0925,-0.0874,-0.0927,-0.0862,-0.0943,-0.099,-0.1034,-0.0961,-0.056,-0.0559,-0.0557,-0.0556,0,0,-0.1697,-0.1644,-0.1651,-0.1514,-0.1515,-0.1436,-0.1484,-0.1499,-0.1486,-0.1414,-0.1289,-0.1283,-0.1154,-0.0885,-0.0802,-0.0635,-0.083,-0.0604,-0.105,-0.1195,-0.1238,-0.1328,-0.1264,0,0,0,0,0]},{"header":{"parameterUnit":"m.s-1","parameterCategory":2,"la1":30.2991,"la2":30.254,"lo1":-89.0895,"lo2":-89.0444,"dy":0.0017,"dx":0.0017,"nx":28,"ny":28,"refTime":"2024-07-20T09:00:00:Z","depth":"2","parameterNumber":3,"parameterNumberName":"V-component_of_CURRENTS"},"data":[0,0,0,0,0,0,0,0,0,0,0,0,0,0,0,0,0,0,0,0,0,0,0,0,0,0,0,0,0,0,0,0,0,0,0,0,0,0,0,0,0,0,0,0,0,0,0,0,0,0,0,0,0,0,0,0,0,0,-0.0272,-0.0271,0,-0.0195,-0.0194,-0.0193,-0.0139,-0.0138,-0.0138,-0.0137,-0.0011,-0.0008,-0.0005,0,0,0,0,0,0,0,0,0,0,0,0,0,-0.0327,-0.0327,-0.0272,-0.0271,-0.027,-0.0195,-0.0194,-0.0193,-0.0139,-0.0138,-0.0138,-0.0137,-0.0012,-0.0009,-0.0005,0,0,0,0,0,0,0,0,0,0,0,0,0,-0.0282,-0.0327,-0.0272,-0.0234,-0.023,-0.0196,-0.0194,-0.0193,-0.0139,-0.0138,-0.0138,-0.0137,-0.0013,-0.0009,-0.0005,0.0011,0,0,0.0009,0.0011,0,0,0,0,0,0,0,0,-0.0285,-0.028,-0.0241,-0.0237,-0.0232,-0.0176,-0.0167,-0.0122,-0.0139,-0.0173,-0.0137,-0.0137,-0.0063,-0.0054,-0.0041,0.0017,0.0022,0.0009,0.0012,0.0014,0.0015,0,0,0,0,0,0,0,-0.0288,-0.0283,-0.0241,-0.024,-0.0235,-0.0206,-0.0199,-0.0159,-0.0121,-0.017,-0.0166,-0.0158,-0.006,-0.0046,-0.0038,0.0024,0.0009,0.0013,0.0016,0.0018,0.0118,0.0118,0,0,0,0,0,0,-0.0301,-0.0286,-0.0244,-0.0239,-0.0258,-0.0206,-0.0198,-0.0195,-0.0122,-0.0111,-0.0159,-0.0156,-0.0054,-0.0043,-0.0033,-0.0006,0.0014,0.0018,0.0021,0.0118,0.0118,0.0118,0,0,0,0,0,0,-0.0303,-0.0298,-0.0247,-0.0261,-0.0252,-0.0206,-0.0202,-0.0193,-0.0178,-0.0115,-0.0102,-0.0152,-0.0053,-0.0039,-0.0002,-0.0001,0.002,0.0024,0.0118,0.0118,0.0118,0.0046,0,0,0,0,0,0,-0.0305,-0.0299,-0.0305,-0.0262,-0.0252,-0.0233,-0.0202,-0.0192,-0.0174,-0.017,-0.0105,-0.0092,-0.0051,-0.0009,0.0003,0.0006,0.0028,0.0118,0.0118,0.0118,0.0048,0.0043,0.0039,0,0,0,0,0,-0.0307,-0.0317,-0.0305,-0.03,-0.026,-0.0233,-0.0226,-0.019,-0.0175,-0.0173,-0.013,-0.0094,-0.0,-0.0006,0.0008,0.0013,0.0118,0.0118,0.0118,0.005,0.0044,0.0039,0,0,0,0,0,0,-0.0345,-0.0312,-0.0298,-0.0298,-0.0271,-0.0224,-0.0221,-0.0196,-0.0161,-0.0157,-0.0097,-0.0082,-0.005,-0.0009,-0.0016,0.0042,0.0066,0.0069,0.001,0.0005,0.0,-0.0011,0.0031,0,0,0,0,0,-0.0357,-0.0357,-0.0317,-0.0319,-0.0308,-0.0266,-0.0252,-0.0228,-0.0191,-0.0175,-0.013,-0.0081,-0.004,-0.0012,0.0028,0.006,0.011,0.0074,0.0069,0.0065,0.0065,0.013,0.0131,0.0118,0.0118,0.0118,0,0,-0.0375,-0.0355,-0.0356,-0.0328,-0.0304,-0.0297,-0.0256,-0.024,-0.023,-0.0166,-0.0142,-0.0099,-0.0037,-0.0004,0.0015,0.0031,0.0096,0.0065,0.006,0.0063,0.013,0.0131,0.0132,0.0118,0.0118,0.0118,0,0,-0.0409,-0.0391,-0.0402,-0.0383,-0.0352,-0.0324,-0.0323,-0.0279,-0.0256,-0.0229,-0.0181,-0.0137,-0.0077,-0.0029,0.0003,-0.0,0.0064,0.0012,-0.0012,0.005,0.0052,0.0054,0.0123,0.0132,0.0016,0.0016,0.0016,0,-0.0432,-0.0438,-0.0401,-0.0404,-0.0393,-0.0341,-0.0348,-0.0317,-0.0268,-0.0246,-0.0232,-0.0135,-0.0086,-0.0032,-0.0035,-0.001,0.0036,0.0,0.0044,0.0047,0.005,0.012,0.0131,0.0013,0.0013,0.0014,0.0014,0,-0.0472,-0.0475,-0.048,-0.0466,-0.0449,-0.0447,-0.04,-0.0378,-0.0344,-0.0306,-0.0253,-0.0186,-0.0126,-0.0103,-0.007,-0.0021,0.0007,0.0023,0.0054,0.0047,0.0122,0.0134,0.0008,0.0009,0.001,0.0011,0,0,-0.0527,-0.0512,-0.0514,-0.0519,-0.0482,-0.0474,-0.0452,-0.0413,-0.0394,-0.0339,-0.0306,-0.0233,-0.0192,-0.0153,-0.0099,-0.0042,0.0021,-0.0007,-0.0002,0.0055,0.0165,0.0189,0.0206,0.004,0.0042,0.0043,0.0209,0,-0.057,-0.0599,-0.0568,-0.0589,-0.06,-0.0541,-0.0524,-0.0479,-0.043,-0.0384,-0.0299,-0.025,-0.0212,-0.0181,-0.0122,-0.0013,0.0049,-0.0025,0.017,0.0176,0.0192,0.0219,0.0162,0.0306,0.0222,0.0224,0.0225,0,-0.0619,-0.0632,-0.0665,-0.0652,-0.0648,-0.0649,-0.0606,-0.0582,-0.0497,-0.0453,-0.0384,-0.0313,-0.0216,-0.0189,-0.0007,-0.0058,0.0041,0.0126,0.0135,0.0192,0.0223,0.03,0.0332,0.0247,0.0245,0.0243,0.0242,0,-0.0689,-0.0695,-0.0727,-0.0726,-0.0702,-0.07,-0.0682,-0.0613,-0.0578,-0.0496,-0.0446,-0.0338,-0.0252,-0.0135,0.0046,0.0019,0.0255,0.0243,0.0363,0.0367,0.0376,0.0377,0.0367,0.0367,0.0367,0.0366,0.0366,0,-0.075,-0.0773,-0.0768,-0.079,-0.0821,-0.0773,-0.0776,-0.0734,-0.0652,-0.0587,-0.0494,-0.0392,-0.0233,-0.0073,0.005,0.0261,0.0267,0.0372,0.0414,0.035,0.0347,0.0336,0.033,0.0372,0.0371,0.037,0.0369,0,-0.0823,-0.0817,-0.086,-0.0859,-0.0862,-0.0889,-0.0848,-0.0833,-0.0741,-0.0648,-0.0613,-0.0413,-0.0198,-0.0028,0.0207,0.0294,0.047,0.0543,0.0461,0.049,0.0534,0.0523,0.0675,0.0677,0.0679,0.0681,0.0682,0,-0.0862,-0.0894,-0.0932,-0.0962,-0.0969,-0.0987,-0.0987,-0.0906,-0.0882,-0.063,-0.0595,-0.0341,-0.0162,0.0176,0.0368,0.0582,0.0578,0.0652,0.058,0.0541,0.0567,0.0553,0.0539,0.0572,0.0572,0.0573,0.0573,0,-0.0936,-0.0952,-0.0989,-0.1058,-0.1085,-0.1106,-0.1105,-0.1086,-0.0935,-0.0805,-0.0551,-0.0362,-0.0004,0.0234,0.0489,0.0597,0.0597,0.0664,0.0676,0.049,0.0454,0.0476,0.0464,0.0575,0.0575,0.0575,0.0575,0.0575,-0.0985,-0.1039,-0.1086,-0.1143,-0.1179,-0.1211,-0.1218,-0.1176,-0.1083,-0.0851,-0.0597,-0.0296,-0.0037,0.0305,0.0523,0.0701,0.0685,0.069,0.0685,0.0681,0.0626,0.0594,0.0733,0.0733,0.0734,0.0734,0.0735,0,-0.1035,-0.1086,-0.1156,-0.1223,-0.1261,-0.1267,-0.127,-0.1231,-0.1125,-0.0865,-0.0606,-0.0269,-0.0014,0.0269,0.0561,0.0727,0.069,0.0737,0.0653,0.0649,0.0646,0.0586,0.0685,0.0686,0.0686,0.0687,0,0,-0.1062,-0.1139,-0.1176,-0.126,-0.1302,-0.1328,-0.1324,-0.1248,-0.1094,-0.082,-0.0588,-0.0352,0.0001,0.0177,0.04,0.0577,0.0566,0.0575,0.059,0.0461,0.0456,0.0587,0.0487,0,0,0,0,0]}],[{"header":{"parameterUnit":"m.s-1","parameterCategory":2,"la1":30.2991,"la2":30.254,"lo1":-89.0895,"lo2":-89.0444,"dy":0.0017,"dx":0.0017,"nx":28,"ny":28,"refTime":"2024-07-20T09:00:00:Z","depth":"4","parameterNumber":2,"parameterNumberName":"U-component_of_CURRENTS"},"data":[0,0,0,0,0,0,0,0,0,0,0,0,0,0,0,0,0,0,0,0,0,0,0,0,0,0,0,0,0,0,0,0,0,0,0,0,0,0,0,0,0,0,0,0,0,0,0,0,0,0,0,0,0,0,0,0,0,0,-0.177,-0.1771,0,-0.1839,-0.184,-0.1841,-0.1891,-0.1891,-0.1892,-0.1893,-0.1975,-0.1977,-0.1978,0,0,0,0,0,0,0,0,0,0,0,0,0,-0.1672,-0.1673,-0.177,-0.1771,-0.1772,-0.1839,-0.184,-0.1841,-0.1891,-0.1891,-0.1892,-0.1893,-0.1975,-0.1977,-0.1979,0,0,0,0,0,0,0,0,0,0,0,0,0,-0.1724,-0.1674,-0.177,-0.1806,-0.181,-0.1839,-0.184,-0.1841,-0.1891,-0.1891,-0.1892,-0.1893,-0.1974,-0.1976,-0.1979,-0.1978,0,0,-0.1987,-0.1988,0,0,0,0,0,0,0,0,-0.1721,-0.1727,-0.18,-0.1804,-0.1808,-0.1859,-0.1836,-0.1888,-0.189,-0.1859,-0.1893,-0.1893,-0.1938,-0.1943,-0.1952,-0.1982,-0.1985,-0.1987,-0.1988,-0.1989,-0.199,0,0,0,0,0,0,0,-0.1717,-0.1724,-0.1796,-0.1801,-0.1806,-0.1816,-0.1824,-0.1846,-0.1892,-0.1861,-0.1866,-0.1875,-0.194,-0.195,-0.1955,-0.1987,-0.1987,-0.1989,-0.1991,-0.1992,-0.2083,-0.2084,0,0,0,0,0,0,-0.1711,-0.1721,-0.1794,-0.1798,-0.1767,-0.1817,-0.1826,-0.184,-0.1891,-0.19,-0.1875,-0.1877,-0.1945,-0.1952,-0.1958,-0.2032,-0.1989,-0.1992,-0.1993,-0.2082,-0.2084,-0.2085,0,0,0,0,0,0,-0.1709,-0.1717,-0.1791,-0.1762,-0.1772,-0.1818,-0.1834,-0.1841,-0.1885,-0.1901,-0.1911,-0.1914,-0.1946,-0.1954,-0.2005,-0.2033,-0.1993,-0.1995,-0.2081,-0.2083,-0.2084,-0.2134,0,0,0,0,0,0,-0.1706,-0.1716,-0.1739,-0.1762,-0.1774,-0.1831,-0.1833,-0.1842,-0.1888,-0.1893,-0.1937,-0.1944,-0.1947,-0.2001,-0.2008,-0.2036,-0.1997,-0.208,-0.2082,-0.2084,-0.2131,-0.2137,-0.2142,0,0,0,0,0,-0.1702,-0.1726,-0.174,-0.175,-0.18,-0.1833,-0.1841,-0.1874,-0.1889,-0.1915,-0.1944,-0.1944,-0.2016,-0.2005,-0.2012,-0.2041,-0.2079,-0.2081,-0.2083,-0.2129,-0.2136,-0.2142,0,0,0,0,0,0,-0.1698,-0.1735,-0.175,-0.1786,-0.1818,-0.1842,-0.1873,-0.1892,-0.1935,-0.195,-0.1963,-0.1971,-0.2023,-0.2025,-0.2011,-0.207,-0.2045,-0.2049,-0.2077,-0.2084,-0.2089,-0.2077,-0.1999,0,0,0,0,0,-0.1707,-0.1737,-0.1768,-0.1801,-0.182,-0.1852,-0.1876,-0.19,-0.1932,-0.1953,-0.1982,-0.2009,-0.2031,-0.2054,-0.2073,-0.2112,-0.2087,-0.2132,-0.2137,-0.2142,-0.2136,-0.2131,-0.2136,-0.2091,-0.2091,-0.2091,0,0,-0.1715,-0.1739,-0.1758,-0.1803,-0.1832,-0.1865,-0.187,-0.1917,-0.1949,-0.1954,-0.2018,-0.2034,-0.2045,-0.2086,-0.2109,-0.2097,-0.2139,-0.2144,-0.2148,-0.214,-0.2134,-0.2138,-0.2142,-0.2093,-0.2093,-0.2092,0,0,-0.1736,-0.177,-0.18,-0.1829,-0.1879,-0.1897,-0.1917,-0.1961,-0.1991,-0.2045,-0.2051,-0.2084,-0.2132,-0.2137,-0.2145,-0.2191,-0.2167,-0.2203,-0.2226,-0.2222,-0.2226,-0.2228,-0.2189,-0.2188,-0.2207,-0.2207,-0.2207,0,-0.1748,-0.1786,-0.1815,-0.185,-0.1876,-0.1914,-0.1948,-0.1983,-0.204,-0.206,-0.2076,-0.2134,-0.215,-0.2179,-0.2195,-0.2203,-0.2185,-0.2203,-0.2229,-0.2231,-0.2233,-0.2192,-0.219,-0.221,-0.221,-0.2209,-0.2209,0,-0.178,-0.1823,-0.1845,-0.1898,-0.193,-0.1968,-0.201,-0.2054,-0.2093,-0.2118,-0.2173,-0.2193,-0.222,-0.2234,-0.2232,-0.2256,-0.2232,-0.2235,-0.2211,-0.224,-0.2195,-0.2192,-0.2214,-0.2213,-0.2212,-0.2211,0,0,-0.1765,-0.1851,-0.1862,-0.1894,-0.1958,-0.1985,-0.2041,-0.209,-0.2128,-0.2183,-0.222,-0.226,-0.2269,-0.2276,-0.2281,-0.2283,-0.2279,-0.227,-0.2268,-0.2227,-0.2247,-0.2091,-0.2072,-0.2294,-0.2294,-0.2294,-0.2205,0,-0.1782,-0.1851,-0.1888,-0.1953,-0.1987,-0.2034,-0.2079,-0.213,-0.2176,-0.2224,-0.2247,-0.2288,-0.2286,-0.2306,-0.2308,-0.2288,-0.2276,-0.23,-0.2227,-0.2224,-0.208,-0.2065,-0.2294,-0.2202,-0.2202,-0.2201,-0.2201,0,-0.1789,-0.1836,-0.1903,-0.1978,-0.1998,-0.2044,-0.2113,-0.2161,-0.2224,-0.2259,-0.2297,-0.2316,-0.2328,-0.2329,-0.2297,-0.2315,-0.2282,-0.2262,-0.2259,-0.2091,-0.2062,-0.2171,-0.2195,-0.2195,-0.2196,-0.2196,-0.2196,0,-0.1745,-0.184,-0.1893,-0.1921,-0.2013,-0.2054,-0.2105,-0.2174,-0.2205,-0.2281,-0.2293,-0.2331,-0.2328,-0.2318,-0.227,-0.2291,-0.2217,-0.2238,-0.2061,-0.2049,-0.2197,-0.2195,-0.2209,-0.2209,-0.2209,-0.2209,-0.221,0,-0.1721,-0.1767,-0.1888,-0.1914,-0.1975,-0.2047,-0.2108,-0.2164,-0.2228,-0.2227,-0.2304,-0.2281,-0.2327,-0.2288,-0.2265,-0.2125,-0.2205,-0.2042,-0.2012,-0.2218,-0.2219,-0.2193,-0.2192,-0.2206,-0.2207,-0.2208,-0.2208,0,-0.1649,-0.1734,-0.1801,-0.1918,-0.1955,-0.2,-0.2095,-0.2112,-0.2196,-0.2192,-0.2207,-0.2236,-0.2166,-0.2176,-0.2135,-0.2071,-0.1996,-0.1932,-0.2118,-0.2105,-0.1834,-0.1837,-0.172,-0.1714,-0.1708,-0.1704,-0.17,0,-0.1612,-0.1646,-0.1785,-0.1812,-0.1867,-0.1947,-0.1969,-0.2081,-0.2072,-0.2118,-0.2067,-0.2056,-0.2046,-0.1846,-0.1901,-0.183,-0.1818,-0.1776,-0.1832,-0.1798,-0.1783,-0.1795,-0.1805,-0.1691,-0.169,-0.1689,-0.1687,0,-0.1527,-0.1598,-0.1646,-0.1708,-0.1752,-0.1784,-0.1824,-0.1815,-0.1886,-0.1985,-0.1866,-0.1829,-0.1737,-0.1708,-0.1659,-0.1623,-0.1811,-0.172,-0.1732,-0.1785,-0.1763,-0.1755,-0.1772,-0.1669,-0.1671,-0.1673,-0.1674,0,-0.1454,-0.147,-0.1535,-0.1565,-0.1609,-0.1568,-0.1635,-0.1595,-0.1615,-0.1677,-0.1628,-0.1626,-0.1683,-0.1594,-0.1551,-0.1499,-0.149,-0.1468,-0.1493,-0.1514,-0.1493,-0.1438,-0.1194,0,0,0,0,0,-0.1369,-0.1356,-0.1373,-0.1384,-0.141,-0.1427,-0.1484,-0.1544,-0.1631,-0.1488,-0.1558,-0.1467,-0.1397,-0.1416,-0.1317,-0.1467,-0.1505,-0.135,-0.1495,-0.1566,-0.1587,-0.1585,0,0,0,0,0,0,-0.1304,-0.1323,-0.1319,-0.1199,-0.1168,-0.1163,-0.1198,-0.1267,-0.1203,-0.1313,-0.1273,-0.1371,-0.1319,-0.1406,-0.1277,-0.1285,-0.1346,-0.1381,-0.1377,-0.1553,-0.1573,-0.159,-0.1595,0,0,0,0,0]},{"header":{"parameterUnit":"m.s-1","parameterCategory":2,"la1":30.2991,"la2":30.254,"lo1":-89.0895,"lo2":-89.0444,"dy":0.0017,"dx":0.0017,"nx":28,"ny":28,"refTime":"2024-07-20T09:00:00:Z","depth":"4","parameterNumber":3,"parameterNumberName":"V-component_of_CURRENTS"},"data":[0,0,0,0,0,0,0,0,0,0,0,0,0,0,0,0,0,0,0,0,0,0,0,0,0,0,0,0,0,0,0,0,0,0,0,0,0,0,0,0,0,0,0,0,0,0,0,0,0,0,0,0,0,0,0,0,0,0,-0.0215,-0.0215,0,-0.0162,-0.0161,-0.016,-0.0127,-0.0127,-0.0127,-0.0127,-0.0034,-0.0031,-0.0029,0,0,0,0,0,0,0,0,0,0,0,0,0,-0.0247,-0.0247,-0.0215,-0.0215,-0.0214,-0.0162,-0.0161,-0.016,-0.0127,-0.0127,-0.0127,-0.0127,-0.0034,-0.0032,-0.0029,0,0,0,0,0,0,0,0,0,0,0,0,0,-0.0217,-0.0247,-0.0215,-0.0192,-0.0189,-0.0162,-0.0161,-0.016,-0.0127,-0.0127,-0.0127,-0.0127,-0.0035,-0.0032,-0.0028,-0.001,0,0,-0.0018,-0.0016,0,0,0,0,0,0,0,0,-0.0219,-0.0216,-0.0196,-0.0193,-0.019,-0.0151,-0.0138,-0.0108,-0.0127,-0.015,-0.0127,-0.0126,-0.007,-0.0064,-0.0054,-0.0006,-0.0002,-0.0017,-0.0015,-0.0014,-0.0013,0,0,0,0,0,0,0,-0.0221,-0.0218,-0.0193,-0.0195,-0.0192,-0.017,-0.0165,-0.0132,-0.011,-0.0148,-0.0146,-0.0141,-0.0068,-0.0057,-0.0051,-0.0001,-0.0017,-0.0014,-0.0012,-0.0011,0.0078,0.0078,0,0,0,0,0,0,-0.0231,-0.022,-0.0195,-0.0192,-0.0205,-0.0169,-0.0165,-0.0164,-0.0111,-0.0104,-0.0141,-0.0139,-0.0063,-0.0055,-0.0048,-0.0016,-0.0014,-0.001,-0.0008,0.0077,0.0078,0.0078,0,0,0,0,0,0,-0.0232,-0.023,-0.0197,-0.0205,-0.0199,-0.0169,-0.0168,-0.0163,-0.0153,-0.0107,-0.0098,-0.0138,-0.0063,-0.0052,-0.0022,-0.0012,-0.0009,-0.0005,0.0077,0.0077,0.0078,0.0043,0,0,0,0,0,0,-0.0233,-0.0231,-0.0237,-0.0206,-0.0199,-0.0186,-0.0168,-0.0162,-0.0151,-0.0148,-0.0101,-0.0092,-0.0062,-0.0027,-0.0018,-0.0007,-0.0003,0.0077,0.0077,0.0078,0.0044,0.0042,0.004,0,0,0,0,0,-0.0235,-0.0242,-0.0238,-0.0235,-0.0208,-0.0186,-0.0181,-0.0158,-0.0151,-0.0149,-0.0118,-0.0094,-0.0018,-0.0025,-0.0014,-0.0002,0.0077,0.0077,0.0078,0.0044,0.0042,0.004,0,0,0,0,0,0,-0.026,-0.0239,-0.0233,-0.0234,-0.0215,-0.0181,-0.0178,-0.0163,-0.0137,-0.0136,-0.0092,-0.0081,-0.0053,-0.0023,-0.0032,0.0025,0.0034,0.0037,0.0005,0.0004,0.0002,-0.0003,0.0,0,0,0,0,0,-0.027,-0.0271,-0.0244,-0.0248,-0.024,-0.0211,-0.0201,-0.0186,-0.0158,-0.0147,-0.0114,-0.0076,-0.0042,-0.0018,0.0012,0.0045,0.007,0.0061,0.0059,0.0057,0.0061,0.011,0.0113,0.0079,0.0079,0.0079,0,0,-0.0283,-0.027,-0.0273,-0.0253,-0.0238,-0.0225,-0.0205,-0.0193,-0.0178,-0.014,-0.0114,-0.0086,-0.0037,-0.0005,0.0013,0.0023,0.0076,0.0058,0.0056,0.0061,0.0111,0.0114,0.0117,0.008,0.008,0.008,0,0,-0.0301,-0.0297,-0.0301,-0.0285,-0.0264,-0.0243,-0.0242,-0.0211,-0.0193,-0.0169,-0.0136,-0.0101,-0.0054,-0.0009,0.0018,0.0028,0.0058,0.0034,0.0033,0.008,0.0083,0.0086,0.0102,0.0107,0.0042,0.0042,0.0042,0,-0.0318,-0.0316,-0.0299,-0.0292,-0.028,-0.0253,-0.0246,-0.0224,-0.0186,-0.0168,-0.0167,-0.009,-0.0051,0.0006,0.0009,0.0026,0.0043,0.0035,0.0077,0.0081,0.0085,0.0101,0.0107,0.004,0.004,0.0041,0.0041,0,-0.0332,-0.033,-0.0331,-0.0313,-0.0297,-0.029,-0.0255,-0.0239,-0.022,-0.0193,-0.015,-0.0101,-0.0053,-0.0033,-0.0007,0.0044,0.0041,0.0061,0.008,0.0086,0.0102,0.0109,0.0038,0.0038,0.0039,0.0039,0,0,-0.0371,-0.0345,-0.0348,-0.0346,-0.0307,-0.0302,-0.0271,-0.0235,-0.0226,-0.0184,-0.016,-0.0091,-0.0072,-0.0039,0.0,0.0048,0.0085,0.0063,0.0066,0.0074,0.0164,0.0125,0.0129,0.011,0.0111,0.0112,0.0156,0,-0.0387,-0.039,-0.0361,-0.0361,-0.036,-0.0317,-0.0296,-0.0261,-0.0231,-0.0206,-0.0139,-0.0113,-0.0071,-0.006,-0.0001,0.006,0.0105,0.007,0.0161,0.0164,0.0126,0.0137,0.0117,0.0161,0.0163,0.0164,0.0165,0,-0.041,-0.0409,-0.0414,-0.0393,-0.0388,-0.0385,-0.0354,-0.033,-0.0273,-0.0249,-0.0195,-0.0156,-0.0078,-0.0056,0.0068,0.004,0.0099,0.0148,0.0152,0.0136,0.0139,0.0161,0.0177,0.0176,0.0175,0.0175,0.0174,0,-0.0463,-0.0447,-0.0457,-0.0451,-0.0421,-0.0418,-0.0403,-0.0355,-0.0344,-0.0287,-0.0281,-0.018,-0.0155,-0.0046,0.0042,0.0062,0.0155,0.0201,0.0224,0.0221,0.0258,0.0254,0.029,0.029,0.029,0.029,0.029,0,-0.0491,-0.0505,-0.0495,-0.0507,-0.0533,-0.0484,-0.0499,-0.0467,-0.0424,-0.0425,-0.0324,-0.031,-0.0152,-0.0085,0.0023,0.012,0.0142,0.0223,0.0237,0.0238,0.0232,0.0261,0.0257,0.0292,0.0291,0.0291,0.0291,0,-0.0549,-0.0536,-0.0566,-0.0559,-0.0566,-0.0594,-0.0586,-0.0591,-0.0538,-0.0537,-0.0524,-0.0414,-0.0313,-0.0178,-0.0021,0.007,0.0183,0.0208,0.0159,0.0168,0.0229,0.0223,0.0278,0.0278,0.0277,0.0276,0.0276,0,-0.0572,-0.0595,-0.0636,-0.067,-0.0677,-0.0703,-0.0721,-0.0671,-0.0673,-0.0608,-0.0617,-0.052,-0.0437,-0.0252,-0.0096,0.0101,0.0135,0.019,0.0266,0.0224,0.0232,0.0227,0.0222,0.0275,0.0275,0.0274,0.0274,0,-0.0624,-0.0654,-0.0684,-0.076,-0.0803,-0.0834,-0.0854,-0.0861,-0.0799,-0.0762,-0.069,-0.056,-0.0456,-0.0271,-0.0147,0.0004,0.0164,0.0184,0.0189,0.0262,0.022,0.0228,0.0223,0.0272,0.0272,0.0272,0.0272,0,-0.0676,-0.0724,-0.0775,-0.0834,-0.0896,-0.0934,-0.0935,-0.0914,-0.0895,-0.0802,-0.0795,-0.0634,-0.0538,-0.0326,-0.021,-0.0072,0.0009,0.0084,0.0096,0.0101,0.0044,-0.0035,-0.005,0,0,0,0,0,-0.0712,-0.0765,-0.0834,-0.0897,-0.0955,-0.0978,-0.1002,-0.0983,-0.0939,-0.0898,-0.083,-0.0722,-0.0493,-0.0395,-0.0259,-0.0211,0.0019,-0.0046,0.0108,0.0258,0.0261,0.0222,0,0,0,0,0,0,-0.0738,-0.0814,-0.0843,-0.0924,-0.0968,-0.1021,-0.1034,-0.1005,-0.0964,-0.0903,-0.0789,-0.0688,-0.048,-0.0579,-0.0259,-0.0215,-0.0096,0.0067,0.0071,0.0256,0.0259,0.0261,0.0222,0,0,0,0,0]}]]